Flag for Cabo Verde Weather past 2 weeks in Santa Maria, Cabo Verde

Now
77 °F

Passing clouds.


Feels Like: 78 °F
Forecast: N/A
Wind: 9 mph from North

Location: Sal

Current Time: Oct 24, 2014 at 10:20:07 PM

Latest Report: Oct 24, 2014 at 10:00 PM


Visibility: N/A

Pressure: 29.92 "Hg

Humidity: 94%

Dew point: 75 °F

Location of Santa MariaLocation

Historic Weather in Santa Maria — Graph

°F

Santa Maria temperature yesterday

Maximum temperature yesterday: 88 °F (at 1:00 PM)
Minimum temperature yesterday: 75 °F (at 6:00 AM)
Average temperature yesterday: 80 °F

Past Weeks' High & Low Weather Summary

 TemperatureHumidityPressure
High90 °F (Oct 22, 2:00 PM)100% (Oct 24, 6:00 AM)30.04 "Hg (Oct 24, 6:00 AM)
Low75 °F (Oct 14, 2:00 AM)49% (Oct 22, 3:00 PM)29.86 "Hg (Oct 24, 4:00 AM)
Average80 °F74%29.96 "Hg
* Reported Oct 9 9:00 PM — Oct 24 9:00 PM, Santa Maria, Weather by CustomWeather, © 2014

Note: Actual official high and low records may vary slightly from our data, if they occured in-between our weather recording intervals... More about our weather records

Advertising

Santa Maria weather history for previous 24 hours

 ConditionsComfort  
Time TempWeatherWind HumidityBarometerVisibility
9:00 PM
Oct 24
77 °FPassing clouds.6 mph89%29.92 "HgN/A
8:00 PM79 °FPassing clouds.7 mph84%29.89 "HgN/A
7:00 PM81 °FPassing clouds.5 mph79%29.89 "HgN/A
6:00 PM82 °FPassing clouds.5 mph66%29.89 "HgN/A
5:00 PM84 °FPassing clouds.7 mph62%29.86 "HgN/A
4:00 PM88 °FPartly sunny.8 mph55%29.86 "HgN/A
3:00 PM88 °FScattered clouds.9 mph55%29.86 "HgN/A
2:00 PM90 °FScattered clouds.9 mph52%29.89 "HgN/A
1:00 PM88 °FScattered clouds.9 mph59%29.92 "HgN/A
12:00 PM86 °FScattered clouds.10 mph62%29.92 "HgN/A
11:00 AM86 °FPartly sunny.13 mph66%29.95 "HgN/A
10:00 AM82 °FBroken clouds.13 mph70%29.95 "HgN/A
9:00 AM81 °FPartly sunny.13 mph79%29.95 "HgN/A
8:00 AM77 °FPartly sunny.9 mph94%29.92 "HgN/A
7:00 AM75 °FPartly sunny.9 mph94%29.89 "Hg5 mi
6:00 AM75 °FClear.13 mph100%29.89 "Hg4 mi
5:00 AM75 °FClear.10 mph94%29.86 "Hg4 mi
4:00 AM75 °FPassing clouds.10 mph94%29.86 "Hg4 mi
3:00 AM75 °FPassing clouds.10 mph94%29.89 "Hg5 mi
2:00 AM75 °FPassing clouds.9 mph94%29.89 "HgN/A
1:00 AM77 °FPassing clouds.8 mph89%29.92 "Hg6 mi
12:00 AM77 °FPassing clouds.10 mph89%29.95 "HgN/A
11:00 PM
Oct 23
77 °FPassing clouds.13 mph89%29.95 "HgN/A
10:00 PM77 °FPassing clouds.10 mph89%29.95 "HgN/A
Weather by CustomWeather, © 2014

See weather overviewHow to use our weather pages